Weather Roundup
Issued by NWS

Home | Current Version | Previous Version | Graphics & Text | Print | Product List | Glossary Off
Versions: 1 2 3 4 5 6 7 8 9 10 11 12 13 14 15 16 17 18 19 20 21 22 23 24 25 26 27 28 29 30 31 32 33 34 35 36 37 38 39 40 41 42 43 44 45 46 47 48 49 50

000
NZUS93 KARX 010059
HRRWXR

CURRENT HOURLY OBSERVATIONS ACROSS
MUCH OF THE UPPER MISSISSIPPI VALLEY
NATIONAL WEATHER SERVICE LA CROSSE WI
800 PM CDT TUE MAR 31 2015


...SOUTHEAST MINNESOTA...


CITY           SKY/WX    TMP DP  RH WIND       PRES   REMARKS
ROCHESTER      CLEAR     57  31  37 CALM      29.91S
ROCHESTER/MAYO FAIR      59  32  36 W3        29.90S
WINONA         CLEAR     55  32  41 W3        29.90R
AUSTIN         CLEAR     57  36  44 NE3       29.89S
ALBERT LEA     CLEAR     59  34  38 E5        29.88S
DODGE CENTER   CLEAR     55  34  44 CALM      29.90S
PRESTON        CLEAR     55  32  40 CALM      29.91S
OWATONNA       CLEAR     55  36  47 CALM      29.89S
FARIBAULT      CLEAR     54  37  54 CALM      29.89S
$$

...ELSEWHERE IN MINNESOTA...


CITY           SKY/WX    TMP DP  RH WIND       PRES   REMARKS
MINNEAPOLIS    PTCLDY    61  26  26 VRB3      29.88S
INTNL FALLS    PTCLDY    35  28  75 E5        29.88S WCI  31
DULUTH         PTCLDY    45  28  51 E8        29.89R
RED WING       CLEAR     52  30  43 CALM      29.88S
REDWOOD FALLS  PTCLDY    63  32  31 E7        29.83S
MANKATO        PTCLDY    59  34  38 E7        29.87S
WORTHINGTON    CLEAR     64  28  25 S6        29.85F
FAIRMONT       CLEAR     61  23  23 E7        29.86S
$$

...SOUTHWEST WISCONSIN...


CITY           SKY/WX    TMP DP  RH WIND       PRES   REMARKS
LA CROSSE      CLEAR     55  31  39 CALM      29.89R
PRAIRIE DU CHI CLEAR     57  29  34 W5        29.90S
BOSCOBEL       CLEAR     54  29  38 CALM      29.91R
LONE ROCK      NOT AVBL
PLATTEVILLE    CLEAR     53  33  46 W8        29.91S
FORT MC COY    CLEAR     55  26  33 W3        29.90S
VIROQUA        FAIR      54  29  39 NW6       29.90S
WIS DELLS      NOT AVBL
$$

...ELSEWHERE IN WISCONSIN...


CITY           SKY/WX    TMP DP  RH WIND       PRES   REMARKS
MILWAUKEE      MOCLDY    43  33  68 S10       29.92R
MADISON        PTCLDY    50  27  40 CALM      29.90R
GREEN BAY      PTCLDY    48  32  53 N7        29.89R
EAU CLAIRE     NOT AVBL
BLACK RVR FLS  FAIR      56  22  26 NW3       29.88R
MEDFORD        PTCLDY    49  26  40 N5        29.88R
WAUSAU         PTCLDY    51  25  36 N6        29.87R
WIS RAPIDS     PTCLDY    52  23  32 N7        29.89R
MARSHFIELD     CLEAR     50  29  44 NW5       29.89R
RICE LAKE      PTCLDY    54  22  28 CALM      29.90S
$$

...NORTHEAST IOWA...


CITY           SKY/WX    TMP DP  RH WIND       PRES   REMARKS
DECORAH        CLEAR     59  32  36 CALM      29.90S
MASON CITY     CLEAR     51  35  54 E6        29.90S
CHARLES CITY   CLEAR     61  34  36 N7        29.91S
OELWEIN        CLEAR     59  34  38 NW5       29.92S
$$

...ELSEWHERE IN IOWA...


CITY           SKY/WX    TMP DP  RH WIND       PRES   REMARKS
DES MOINES     PTCLDY    68  29  23 S5        29.90S
IOWA CITY      CLEAR     64  31  28 N3        29.93S
FORT DODGE     CLEAR     57  34  41 CALM      29.89S
$$

...NORTHERN ILLINOIS...


CITY           SKY/WX    TMP DP  RH WIND       PRES   REMARKS
CHICAGO-OHARE  PTCLDY    47  35  63 SE10      29.93R
CHICAGO-MIDWAY PTCLDY    50  36  58 SE8       29.94S
MOLINE         CLEAR     61  26  26 NW7       29.92R
ROCKFORD       CLEAR     53  33  46 CALM      29.93R
PEORIA         CLEAR     62  29  28 CALM      29.93R
$$

NOTE: "FAIR" INDICATES FEW OR NO CLOUDS BELOW 12,000 FEET WITH NO
SIGNIFICANT WEATHER AND/OR OBSTRUCTIONS TO VISIBILITY. WIND
SPEEDS ARE IN MILES-PER-HOUR.



USA.gov is the U.S. government's official web portal to all federal, state and local government web resources and services.